STARLINK-32312, 61711

Orbit data source: Space-Track

STARLINK-32312, 61711 is a payload satellite owned by SpaceX/Seattle (US) in LEO that was launched on Wed, 30 Oct 2024 UTC via an FALCON 9 launch vehicle from the Air Force Eastern Test Range (AFETR). Payload-class satellites include a variety of spacecraft equipped with specific instruments for various scientific and technological missions. These include communications satellites like Starlink; space stations such as the ISS; scientific satellites like the Hubble; Earth observation satellites from companies like Planet Labs, Umbra, and HawkEye 360; GPS; miniature CubeSats for education and research; and military/defense satellites.

Loading next visibility...
Identifier
61711, 2024-196E
Orbit
LEO
Last TLE update
15 hours ago
Origin
Manufacturer
SpaceX/Seattle
Mission
Operational Commercial Communications
Bus & Motor
STARLINK V2M, Unknown motor
Mass
730 kg wet, ~700 kg dry
Launch date (UTC)
2024-10-30 (8 months ago)
Launch vehicle
FALCON 9
Launch site
Air Force Eastern Test Range (AFETR)
Object type
Payload
Rocket body
Debris
Shape & HBR
Box + 2 Pan, 29 m
Radar Cross Section
36.964 m², Large (>1 m²)

Expand to show TLE details & history

TLE from 15 hours ago
0 STARLINK-32312
1 61711U 24196E   25181.72741559 -.00000102  00000-0  86790-5 0  9994
2 61711  53.1589 191.4225 0001219  77.8272 282.2866 15.30190367 38582
Epoch: 2025-06-30T17:27Z
TLE epoch observation values (Epoch: 2025-06-30T17:27:28.706Z)
Latitude
0.00001°
Longitude
10.51983°
Altitude
475.966 km
Speed
7.629 km/s
True Right ascension
12h 45m 41s
True Declination
0° 00' 00"
Sunlit
Object was in daylight at epoch
Visualization orbit readout
Latitude
-45.53196°
Longitude
-41.84218°
Altitude
491.353 km
Speed
7.619 km/s
Apparent Right ascension
08h 52m 49s
Apparent Declination
-42° 47' 28"
Sunlit
Object is in daylight
Visualization observer readout
Local Sidereal Time
20:29:47
Azimuth
234.498° WSW
Elevation
-84.81°
Doppler factor
1
Orbital elements
Apogee altitude
476.336 km
Perigee altitude
474.665 km
Semi-major axis
6,853.637 km
Eccentricity
0.00012
Inclination
53.1589°
RAAN
191.4225°
Arg. of periapsis
77.8272°
True anomaly
Unknown
Mean anomaly
282.2866°
Eccentric anomaly
Unknown
Mean motion
3.82526 °/min
Orbital period
94.11 mins
BSTAR
0.000008679
Loading maneuver chart data...
Loading SW <> Apogee altitude chart data...
Loading historical data...
Loading historical data...
Loading historical data...
Loading historical data...
Loading historical data...
Loading historical data...
Loading historical data...

STARLINK-32312 Visibility forecast

Observer location: undefined°, undefined°

Span
Click to sort rows by Start time (UTC) header in descending order
Start Az.
Max El. time (UTC)
Max El. Az.
Max El.
End time (UTC)
End Az.
6 mins2025-07-01 09:36:35.796Z325.801° NNW2025-07-01 09:39:35.796Z39.282° NE32.726°2025-07-01 09:42:35.796Z102.886° ESE
4 mins2025-07-01 11:15:35.796Z267.686° W2025-07-01 11:17:35.796Z219.6° SW21.9°2025-07-01 11:19:35.796Z181.051° SSW
4 mins2025-07-02 02:33:35.796Z181.127° SSW2025-07-02 02:34:35.796Z153.023° SSE30.086°2025-07-02 02:37:35.796Z71.351° E
4 mins2025-07-02 04:11:35.796Z290.732° WNW2025-07-02 04:12:35.796Z316.359° NNW25.429°2025-07-02 04:15:35.796Z26.567° NE
|